Location: Unspecified
(0.0000°N, 0.0000°E)
Time: 12:10:46
(UTC+00:00)

S-56A Canister/Altair - Pass Details

Date: 21 November 2019
Orbit: 633 x 2499 km, 38.9° (Epoch: 10 December)

Event Time Altitude Azimuth Distance (km) Brightness Sun altitude
Rises 09:45:29 0° 206° (SSW) 5,659 12.0 54.5°
Reaches altitude 10° 09:50:16 10° 192° (SSW) 4,881 11.9 55.4°
Maximum altitude 10:00:54 24° 144° (SE) 4,090 12.3 57.5°
Drops below altitude 10° 10:11:48 10° 97° (E) 5,072 12.2 59.6°
Sets 10:16:46 0° 84° (E) 5,927 12.3 60.5°
